Starlink 2387

operational
NORAD ID: 47806 Int'l Des: 2021-018 Owner: SPXS Country: US Constellation: starlink
LEOCIRCULARSTARLINK_TYPE

About Starlink 2387

Description loading...

Live Position

Loading 3D Globe...

Upcoming Passes

Altitude History

Altitude vs Time

uPlot chart will show altitude changes over time

Two-Line Element Set

1 47806U 21018V 25302.91491232 -.00000958 00000-0 -45448-4 0 9993
2 47806 53.0529 113.6990 0001227 90.1960 269.9170 15.06406731257019
Epoch: Oct 29, 2025 • Age: 9 hours

Current Status

Altitude 566.3 km
Velocity 7.58 km/s
Sub-Earth Point -52.70°S, 113.14°W
Launch Date Mar 11, 2021
Age 4.6 years
Type internet

Technical Details

Classification Payload
Mass 260.00 kg
Dry Mass 248.00 kg
Total Mass 260.00 kg
Length 0.20 m
Diameter 2.80 m
Span 9.00 m
Shape Box + pan
Manufacturer SPXS
Bus Type Starlink
Phase Status In Orbit
Owner/State SPXS/US

Large Constellations

Loading constellations...